Location: *
(51.2167°N, 10.0667°E)
Time: 04:38:14
(UTC+00:00)

Cosmos 676 Rocket - Pass Details

Date: 12 December 2019
Orbit: 754 x 785 km, 74.0° (Epoch: 21 January)

Event Time Altitude Azimuth Distance (km) Brightness Sun altitude
Rises 17:29:36 0° 182° (S) 3,194 7.4 -20.3°
Reaches altitude 10° 17:32:02 10° 175° (S) 2,274 6.5 -20.6°
Enters shadow 17:36:40 43° 112° (ESE) 1,061 4.3 -21.3°
